Weather in Bobrovka

Russia / Altai Krai     53°10′49″N   83°52′53″E
temp.,
°C
wind,
m/s
gust,
m/s
humid.,
%
clouds,
%
prec.,
mm/h
press.,
hPa
HPBL,
m
14 april, wed
wed1401:000wnw3587100 0.0 1035285
04:000wnw2484100 0.0 1035223
07:000sw3692100 0.1 1035198
10:00+2sw378999 0.0 1035486
13:00+4sw5783100 0.0 1033792
16:00+5sw5980100 0.0 1031785
19:00+4sw51281100 0.0 1029543
22:00+3sw41284100 0.0 1028261
15 april, thu
thu1501:00+1sw379081 0.0 1027118
04:00+2w2596100 0.0 1027132
07:00+1sw1199100 0.0 102717
10:00+3ssw1297100 0.1 1027104
13:00+5ssw2391100 0.1 1027256
16:00+7sw2488100 0.0 1026403
19:00+4ssw2498100 0.1 1025111
22:00+3ssw239976 0.0 102557
16 april, fri
fri1601:00+3s2398100 0.0 102375
04:00+3ssw2398100 0.0 102282
07:00+3s2796100 0.0 1021137
10:00+7ssw478213 0.0 1020299
13:00+13sw46605 0.0 10181023
16:00+15sw465310 0.0 10161381
19:00+14ssw37600 0.0 1014268
22:00+9ssw38803 0.0 1014143
17 april, sat
sat1701:00+7ssw3784100 0.0 1012130
04:00+6sw1187100 0.0 101110
07:00+4nne51092100 0.0 1012446
10:00+1nne41196100 1.6 1014472
13:00+3ne4680100 2.6 1015742
16:00+4ne3575100 0.1 1015696
19:00+4ne2377100 0.1 1015449
22:00+3e1183100 0.0 101413
18 april, sun
sun1801:00+2ssw228994 0.0 101325
04:00+2ssw2391100 0.0 101090
07:00+1wnw2699100 2.8 1009229
10:00+1w3796100 0.4 1010420
13:00+5w5961100 0.6 10111582
16:00+6w61054100 0.3 10111856
19:00+4wnw5844100 0.3 10141369
22:00+1nw3853100 0.0 1017386